Location: Unspecified
(47.2333°N, 39.7000°E)
Time: 06:25:26
(UTC+00:00)

ISS - Pass Details

Date: 06 March 2021
Orbit: 418 x 422 km, 51.6° (Epoch: 16 April)

Event Time Altitude Azimuth Distance (km) Brightness Sun altitude
Exits shadow 01:34:41 34° 31° (NNE) 717 -2.2 -23.9°
Drops below altitude 10° 01:37:14 10° 74° (ENE) 1,500 0.2 -23.4°
Sets 01:39:26 0° 83° (E) 2,364 1.5 -23.1°
